Mount Carmel, IL

11:52 PM CST on December 17, 2017 (GMT -0600)
Mount Carmel Municipal

Weather History for KAJG - October, 2012

Change the Weather History Date:

Monday, October 22, 2012

  Actual Average (KLWV) Record (KLWV)
Temperature  
Mean Temperature 73 °F -  
Max Temperature 80 °F 64 °F 84 °F (2015)
Min Temperature 66 °F 42 °F 28 °F (1997)
Cooling Degree Days 8    
Growing Degree Days 23 (Base 50)    
Moisture  
Dew Point 53 °F    
Average Humidity 50    
Maximum Humidity 78    
Minimum Humidity 34    
Precipitation  
Precipitation 0.00 in - - ()
Sea Level Pressure  
Sea Level Pressure 30.02 in    
Wind  
Wind Speed 10 mph (South)    
Max Wind Speed 23 mph    
Max Gust Speed 31 mph    
Visibility 10 miles    
Events Rain    
Averages and records for this station are not official NWS values.
T = Trace of Precipitation, MM = Missing Value Source: NWS Daily Summary

Daily Weather History Graph

Daily Weather History Graph

Search for Another Location

Airport or City:

Trip Planner

Search our weather history database for the weather conditions in past years. The results will help you decide how hot, cold, wet, or windy it might be!

Date:

Astronomy

Oct. 22, 2012 Rise Set
Actual Time 7:07 AM CDT 6:02 PM CDT
Civil Twilight 6:40 AM CDT 6:29 PM CDT
Nautical Twilight 6:09 AM CDT 7:00 PM CDT
Astronomical Twilight 5:38 AM CDT 7:31 PM CDT
Moon 2:05 PM CDT (10/22) No Moon Set
Length of Visible Light 11h 48m
Length of Day
10h 54m
First Quarter, 56% of the Moon is Illuminated
Oct 22
First Quarter
Oct 29
Full
Nov 6
Last Quarter
Nov 13
New
Nov 20
First Quarter

Hourly Weather History & Observations

Time (CDT) Temp. Heat Index Dew Point Humidity Pressure Visibility Wind Dir Wind Speed Gust Speed Precip Events Conditions
12:15 AM 66.2 °F - 59.0 °F 78% 30.02 in 10.0 mi ESE 4.6 mph - N/A   Overcast
12:55 AM 66.2 °F - 59.0 °F 78% 30.02 in 10.0 mi SE 4.6 mph - N/A   Overcast
1:15 AM 66.2 °F - 59.0 °F 78% 30.03 in 10.0 mi SE 4.6 mph - N/A   Overcast
1:35 AM 66.2 °F - 59.0 °F 78% 30.03 in 10.0 mi Calm Calm - N/A   Overcast
1:55 AM 68.0 °F - 57.2 °F 68% 30.03 in 10.0 mi South 3.5 mph - N/A   Overcast
2:15 AM 68.0 °F - 55.4 °F 64% 30.03 in 10.0 mi South 4.6 mph - N/A   Overcast
2:35 AM 68.0 °F - 55.4 °F 64% 30.04 in 10.0 mi South 6.9 mph - N/A   Overcast
2:55 AM 68.0 °F - 53.6 °F 60% 30.04 in 10.0 mi South 6.9 mph - N/A   Overcast
3:15 AM 68.0 °F - 53.6 °F 60% 30.04 in 10.0 mi South 8.1 mph - N/A   Overcast
3:55 AM 68.0 °F - 53.6 °F 60% 30.04 in 10.0 mi South 8.1 mph - N/A   Overcast
4:15 AM 68.0 °F - 51.8 °F 56% 30.04 in 10.0 mi South 10.4 mph - N/A   Overcast
4:35 AM 68.0 °F - 51.8 °F 56% 30.03 in 10.0 mi South 11.5 mph - N/A   Overcast
4:55 AM 68.0 °F - 51.8 °F 56% 30.03 in 10.0 mi SSW 12.7 mph - N/A   Overcast
5:15 AM 68.0 °F - 51.8 °F 56% 30.03 in 10.0 mi South 15.0 mph - N/A   Overcast
5:35 AM 68.0 °F - 51.8 °F 56% 30.03 in 10.0 mi South 13.8 mph - N/A   Overcast
5:55 AM 68.0 °F - 51.8 °F 56% 30.04 in 10.0 mi South 11.5 mph - N/A   Overcast
6:15 AM 68.0 °F - 53.6 °F 60% 30.04 in 10.0 mi South 10.4 mph - N/A   Mostly Cloudy
6:35 AM 66.2 °F - 53.6 °F 64% 30.04 in 10.0 mi South 10.4 mph - N/A   Mostly Cloudy
6:55 AM 66.2 °F - 53.6 °F 64% 30.05 in 10.0 mi South 9.2 mph - N/A   Mostly Cloudy
7:15 AM 68.0 °F - 51.8 °F 56% 30.04 in 10.0 mi South 13.8 mph 18.4 mph N/A   Overcast
7:35 AM 68.0 °F - 51.8 °F 56% 30.04 in 10.0 mi South 12.7 mph - N/A   Mostly Cloudy
7:55 AM 68.0 °F - 51.8 °F 56% 30.04 in 10.0 mi South 15.0 mph - N/A   Scattered Clouds
8:15 AM 68.0 °F - 51.8 °F 56% 30.05 in 10.0 mi South 13.8 mph - N/A   Scattered Clouds
8:35 AM 69.8 °F - 51.8 °F 53% 30.05 in 10.0 mi South 13.8 mph - N/A   Scattered Clouds
8:55 AM 69.8 °F - 51.8 °F 53% 30.05 in 10.0 mi SSW 15.0 mph - N/A   Overcast
9:15 AM 69.8 °F - 51.8 °F 53% 30.05 in 10.0 mi SSW 11.5 mph - N/A   Overcast
9:35 AM 71.6 °F - 51.8 °F 50% 30.04 in 10.0 mi South 17.3 mph - N/A   Overcast
9:55 AM 71.6 °F - 53.6 °F 53% 30.04 in 10.0 mi South 12.7 mph - N/A   Scattered Clouds
10:15 AM 73.4 °F - 53.6 °F 50% 30.03 in 10.0 mi South 15.0 mph - N/A   Clear
10:35 AM 73.4 °F - 53.6 °F 50% 30.03 in 10.0 mi SSW 15.0 mph 23.0 mph N/A   Clear
10:55 AM 75.2 °F - 55.4 °F 50% 30.04 in 10.0 mi SSW 15.0 mph 23.0 mph N/A   Scattered Clouds
11:15 AM 77.0 °F - 55.4 °F 47% 30.03 in 10.0 mi SSW 15.0 mph 21.9 mph N/A   Scattered Clouds
11:35 AM 77.0 °F - 57.2 °F 50% 30.02 in 10.0 mi SSW 16.1 mph 24.2 mph N/A   Clear
11:55 AM 78.8 °F - 55.4 °F 44% 30.01 in 10.0 mi SSW 23.0 mph - N/A   Clear
12:15 PM 80.6 °F 80.5 °F 55.4 °F 42% 30.02 in 10.0 mi SSW 21.9 mph 26.5 mph N/A   Clear
12:35 PM 80.6 °F 80.3 °F 53.6 °F 39% 30.00 in 10.0 mi SSW 20.7 mph 27.6 mph N/A   Clear
12:55 PM 80.6 °F 80.3 °F 53.6 °F 39% 30.01 in 10.0 mi SSW 23.0 mph 31.1 mph N/A   Clear
1:15 PM 80.6 °F 80.3 °F 53.6 °F 39% 30.02 in 10.0 mi SSW 21.9 mph 27.6 mph N/A   Clear
1:35 PM 78.8 °F - 53.6 °F 42% 30.02 in 10.0 mi SSW 12.7 mph - N/A   Clear
1:55 PM 78.8 °F - 53.6 °F 42% 30.04 in 10.0 mi SSW 10.4 mph - N/A   Clear
2:15 PM 78.8 °F - 53.6 °F 42% 30.04 in 10.0 mi South 11.5 mph - N/A   Clear
2:35 PM 78.8 °F - 53.6 °F 42% 30.02 in 10.0 mi South 8.1 mph - N/A   Clear
2:55 PM 80.6 °F - 51.8 °F 37% 30.02 in 10.0 mi South 9.2 mph - N/A   Clear
3:15 PM 80.6 °F - 51.8 °F 37% 30.03 in 10.0 mi South 6.9 mph - N/A   Clear
3:35 PM 80.6 °F - 51.8 °F 37% 30.04 in 10.0 mi South 9.2 mph - N/A   Scattered Clouds
3:55 PM 80.6 °F - 51.8 °F 37% 30.03 in 10.0 mi SSE 8.1 mph - N/A   Scattered Clouds
4:15 PM 80.6 °F - 51.8 °F 37% 30.03 in 10.0 mi South 9.2 mph - N/A   Scattered Clouds
4:35 PM 78.8 °F - 51.8 °F 39% 30.02 in 10.0 mi South 12.7 mph - N/A   Clear
4:55 PM 78.8 °F - 51.8 °F 39% 30.01 in 10.0 mi South 11.5 mph - N/A   Mostly Cloudy
5:15 PM 77.0 °F - 51.8 °F 41% 30.00 in 10.0 mi South 15.0 mph - N/A   Scattered Clouds
5:35 PM 77.0 °F - 51.8 °F 41% 29.98 in 10.0 mi South 16.1 mph 20.7 mph N/A   Scattered Clouds
5:55 PM 75.2 °F - 51.8 °F 44% 29.94 in 10.0 mi South 18.4 mph 29.9 mph N/A Rain Light Rain
6:15 PM 77.0 °F - 50.0 °F 39% 29.95 in 10.0 mi South 10.4 mph 24.2 mph N/A   Light Drizzle
6:35 PM 75.2 °F - 48.2 °F 38% 29.96 in 10.0 mi SSW 18.4 mph - N/A   Clear
6:55 PM 77.0 °F - 46.4 °F 34% 29.95 in 10.0 mi SSW 20.7 mph 26.5 mph N/A   Clear
7:15 PM 77.0 °F - 46.4 °F 34% 29.96 in 10.0 mi SSW 20.7 mph 29.9 mph N/A   Clear
7:35 PM 75.2 °F - 48.2 °F 38% 29.96 in 10.0 mi SSW 16.1 mph 26.5 mph N/A   Clear
7:55 PM 75.2 °F - 48.2 °F 38% 29.97 in 10.0 mi SSW 19.6 mph 24.2 mph N/A   Clear
8:15 PM 73.4 °F - 48.2 °F 41% 29.98 in 10.0 mi SSW 17.3 mph 23.0 mph N/A   Clear
8:55 PM 71.6 °F - 48.2 °F 43% 29.99 in 10.0 mi SSW 12.7 mph - N/A   Clear
9:15 PM 71.6 °F - 50.0 °F 46% 30.00 in 10.0 mi SSW 10.4 mph - N/A   Clear
9:55 PM 69.8 °F - 50.0 °F 49% 30.01 in 10.0 mi SSW 9.2 mph - N/A   Clear
10:15 PM 69.8 °F - 50.0 °F 49% 30.01 in 10.0 mi SSW 9.2 mph - N/A   Clear
10:35 PM 68.0 °F - 50.0 °F 52% 30.01 in 10.0 mi SSW 6.9 mph - N/A   Clear
10:55 PM 68.0 °F - 50.0 °F 52% 30.00 in 10.0 mi South 5.8 mph - N/A   Clear
11:15 PM 66.2 °F - 51.8 °F 60% 30.00 in 10.0 mi South 4.6 mph - N/A   Clear
11:35 PM 66.2 °F - 51.8 °F 60% 30.00 in 10.0 mi SSW 6.9 mph - N/A   Clear